Location: Bou Ouachlou
(32.7770°N, 5.6009°W)
Time: 03:11:31
(UTC+00:00)

STARLINK-1343 - Pass Details

Date: 07 June 2020
Orbit: 378 x 381 km, 53.0° (Epoch: 06 July)

Event Time Altitude Azimuth Distance (km) Brightness Sun altitude
Rises 04:42:07 0° 321° (NW) 2,248 6.7 -6.6°
Reaches altitude 10° 04:44:13 10° 327° (NNW) 1,393 5.7 -6.3°
Maximum altitude 04:47:15 49° 44° (NE) 497 4.0 -5.7°
Drops below altitude 10° 04:50:16 10° 121° (ESE) 1,386 6.1 -5.2°
Sets 04:52:20 0° 127° (SE) 2,234 7.1 -4.8°
